Weather History for KOZW - May, 2012

Change the Weather History Date:

Wednesday, May 2, 2012

  Actual Average Record
Temperature  
Mean Temperature 66 °F -  
Max Temperature 81 °F 64 °F 82 °F (2001)
Min Temperature 50 °F 43 °F 37 °F (1997)
Growing Degree Days 16 (Base 50)    
Moisture  
Dew Point 55 °F    
Average Humidity 74    
Maximum Humidity 94    
Minimum Humidity 37    
Precipitation  
Precipitation 0.00 in - - ()
Sea Level Pressure  
Sea Level Pressure 29.90 in    
Wind  
Wind Speed 9 mph (South)    
Max Wind Speed 20 mph    
Max Gust Speed 28 mph    
Visibility 6 miles    
Events      
Averages and records for this station are not official NWS values.
T = Trace of Precipitation, MM = Missing Value Source: NWS Daily Summary

Daily Weather History Graph

Daily Weather History Graph

Search for Another Location

Airport or City:

Trip Planner

Search our weather history database for the weather conditions in past years. The results will help you decide how hot, cold, wet, or windy it might be!

Date:

Astronomy

May. 02, 2012 Rise Set
Actual Time 6:28 AM EDT 8:37 PM EDT
Civil Twilight 5:57 AM EDT 9:08 PM EDT
Nautical Twilight 5:19 AM EDT 9:47 PM EDT
Astronomical Twilight 4:37 AM EDT 10:29 PM EDT
Moon 4:44 PM EDT (5/2) 4:03 AM EDT (5/2)
Length of Visible Light 15h 11m
Length of Day
14h 09m
Waxing Gibbous, 83% of the Moon is Illuminated
May 2
Waxing Gibbous
May 5
Full
May 12
Last Quarter
May 20
New
May 28
First Quarter

Hourly Weather History & Observations

Time (EDT) Temp. Heat Index Dew Point Humidity Pressure Visibility Wind Dir Wind Speed Gust Speed Precip Events Conditions
12:15 AM 52.7 °F - 49.3 °F 88% 29.95 in 7.0 mi ESE 10.4 mph - N/A   Scattered Clouds
12:34 AM 52.7 °F - 49.1 °F 88% 29.95 in 5.0 mi ESE 10.4 mph - N/A   Clear
12:54 AM 52.2 °F - 49.1 °F 89% 29.93 in 5.0 mi ESE 9.2 mph - N/A   Clear
1:14 AM 52.2 °F - 49.3 °F 90% 29.95 in 5.0 mi ESE 6.9 mph - N/A   Clear
1:34 AM 52.3 °F - 49.3 °F 89% 29.93 in 5.0 mi ESE 8.1 mph - N/A   Clear
1:55 AM 52.2 °F - 49.1 °F 89% 29.92 in 5.0 mi ESE 5.8 mph - N/A   Scattered Clouds
2:14 AM 51.6 °F - 48.7 °F 90% 29.92 in 5.0 mi ESE 6.9 mph - N/A   Clear
2:34 AM 50.5 °F - 48.2 °F 92% 29.92 in 4.0 mi SE 4.6 mph - N/A   Clear
2:55 AM 51.3 °F - 49.1 °F 92% 29.92 in 4.0 mi SE 4.6 mph - N/A   Scattered Clouds
3:14 AM 51.8 °F - 49.3 °F 91% 29.92 in 4.0 mi ESE 4.6 mph - N/A   Overcast
3:34 AM 52.2 °F - 49.3 °F 90% 29.91 in 4.0 mi East 4.6 mph - N/A   Overcast
3:55 AM 52.3 °F - 49.5 °F 90% 29.91 in 4.0 mi SE 4.6 mph - N/A   Overcast
4:14 AM 52.7 °F - 49.6 °F 89% 29.91 in 4.0 mi SE 4.6 mph - N/A   Overcast
4:34 AM 52.7 °F - 50.0 °F 91% 29.91 in 4.0 mi SE 4.6 mph - N/A   Overcast
4:55 AM 52.9 °F - 50.0 °F 90% 29.91 in 4.0 mi SE 5.8 mph - N/A   Overcast
5:14 AM 53.1 °F - 50.2 °F 90% 29.90 in 4.0 mi SE 9.2 mph - N/A   Overcast
5:34 AM 53.1 °F - 50.2 °F 90% 29.91 in 4.0 mi SSE 6.9 mph - N/A   Overcast
5:55 AM 53.2 °F - 50.4 °F 90% 29.91 in 4.0 mi SE 8.1 mph - N/A   Overcast
6:14 AM 53.1 °F - 50.4 °F 91% 29.91 in 4.0 mi SE 8.1 mph - N/A   Overcast
6:35 AM 52.7 °F - 50.4 °F 92% 29.91 in 3.0 mi SE 8.1 mph - N/A   Overcast
6:54 AM 52.7 °F - 50.7 °F 93% 29.92 in 2.0 mi SE 6.9 mph - N/A   Overcast
7:14 AM 52.7 °F - 50.9 °F 94% 29.92 in 1.8 mi SE 6.9 mph - N/A   Overcast
7:35 AM 52.7 °F - 51.1 °F 94% 29.92 in 1.8 mi SE 9.2 mph - N/A   Overcast
7:54 AM 53.2 °F - 51.6 °F 94% 29.92 in 1.8 mi SE 8.1 mph - N/A   Overcast
8:14 AM 53.6 °F - 51.8 °F 94% 29.92 in 1.8 mi SE 9.2 mph - N/A   Overcast
8:35 AM 54.0 °F - 52.2 °F 94% 29.91 in 2.0 mi SE 9.2 mph - N/A   Overcast
8:54 AM 54.5 °F - 52.7 °F 94% 29.92 in 2.0 mi SE 9.2 mph - N/A   Overcast
9:14 AM 55.6 °F - 53.8 °F 94% 29.91 in 2.0 mi SSE 8.1 mph - N/A   Overcast
9:35 AM 56.7 °F - 54.5 °F 92% 29.91 in 2.5 mi SSE 10.4 mph - N/A   Overcast
9:54 AM 57.9 °F - 55.6 °F 92% 29.90 in 2.5 mi SSE 11.5 mph - N/A   Overcast
10:14 AM 58.5 °F - 56.3 °F 93% 29.90 in 2.5 mi SSE 8.1 mph - N/A   Overcast
10:34 AM 59.9 °F - 57.2 °F 91% 29.90 in 2.5 mi SSE 9.2 mph - N/A   Overcast
10:54 AM 61.7 °F - 58.1 °F 88% 29.90 in 3.0 mi South 10.4 mph - N/A   Overcast
11:15 AM 62.8 °F - 58.5 °F 86% 29.89 in 4.0 mi South 10.4 mph - N/A   Mostly Cloudy
11:34 AM 65.5 °F - 59.9 °F 82% 29.88 in 5.0 mi South 11.5 mph - N/A   Haze
11:54 AM 67.5 °F - 60.4 °F 78% 29.87 in 5.0 mi South 11.5 mph - N/A   Haze
12:15 PM 68.4 °F - 60.6 °F 76% 29.86 in 5.0 mi South 9.2 mph - N/A   Haze
12:34 PM 69.4 °F - 61.2 °F 75% 29.86 in 7.0 mi South 9.2 mph - N/A   Clear
12:54 PM 70.5 °F - 61.9 °F 74% 29.84 in 7.0 mi South 12.7 mph 16.1 mph N/A   Clear
1:15 PM 72.5 °F - 62.6 °F 71% 29.83 in 7.0 mi South 12.7 mph 18.4 mph N/A   Clear
1:34 PM 73.4 °F - 63.1 °F 70% 29.82 in 7.0 mi SSE 12.7 mph 17.3 mph N/A   Clear
1:54 PM 73.9 °F - 63.5 °F 70% 29.83 in 10.0 mi South 10.4 mph - N/A   Clear
2:15 PM 77.7 °F - 65.1 °F 65% 29.83 in 10.0 mi SW 15.0 mph 23.0 mph N/A   Scattered Clouds
2:34 PM 79.0 °F - 64.8 °F 62% 29.83 in 10.0 mi SW 15.0 mph 20.7 mph N/A   Scattered Clouds
2:54 PM 79.7 °F - 64.2 °F 59% 29.84 in 10.0 mi WSW 13.8 mph 19.6 mph N/A   Scattered Clouds
3:15 PM 79.5 °F - 62.2 °F 55% 29.84 in 10.0 mi WSW 17.3 mph 24.2 mph N/A   Mostly Cloudy
3:34 PM 80.1 °F 81.1 °F 61.0 °F 52% 29.85 in 10.0 mi WSW 17.3 mph 24.2 mph N/A   Mostly Cloudy
3:55 PM 81.1 °F 82.0 °F 61.5 °F 51% 29.85 in 10.0 mi West 15.0 mph - N/A   Mostly Cloudy
4:14 PM 81.5 °F 82.0 °F 60.1 °F 48% 29.85 in 10.0 mi WSW 16.1 mph - N/A   Scattered Clouds
4:34 PM 80.8 °F 80.9 °F 57.2 °F 44% 29.85 in 10.0 mi West 17.3 mph 21.9 mph N/A   Scattered Clouds
4:54 PM 80.8 °F 81.0 °F 57.7 °F 45% 29.86 in 10.0 mi West 19.6 mph 27.6 mph N/A   Scattered Clouds
5:14 PM 80.2 °F - 51.6 °F 37% 29.86 in 10.0 mi West 16.1 mph 24.2 mph N/A   Clear
5:35 PM 81.0 °F 80.6 °F 54.3 °F 40% 29.87 in 10.0 mi West 12.7 mph 17.3 mph N/A   Clear
5:54 PM 79.7 °F - 55.2 °F 43% 29.87 in 10.0 mi West 8.1 mph 18.4 mph N/A   Scattered Clouds
6:14 PM 80.6 °F 80.4 °F 54.9 °F 41% 29.87 in 10.0 mi WSW 10.4 mph - N/A   Clear
6:34 PM 80.2 °F 80.4 °F 56.3 °F 44% 29.87 in 10.0 mi West 9.2 mph - N/A   Scattered Clouds
6:54 PM 80.2 °F 80.4 °F 56.1 °F 43% 29.88 in 10.0 mi West 10.4 mph - N/A   Scattered Clouds
7:15 PM 79.7 °F - 56.5 °F 45% 29.89 in 10.0 mi West 9.2 mph - N/A   Scattered Clouds
7:34 PM 78.4 °F - 57.2 °F 48% 29.90 in 10.0 mi West 9.2 mph - N/A   Scattered Clouds
7:54 PM 78.1 °F - 55.4 °F 45% 29.91 in 10.0 mi West 9.2 mph - N/A   Clear
8:15 PM 74.7 °F - 55.4 °F 51% 29.92 in 10.0 mi West 6.9 mph - N/A   Clear
8:34 PM 72.9 °F - 55.9 °F 55% 29.94 in 10.0 mi NW 4.6 mph - N/A   Clear
8:54 PM 72.9 °F - 55.8 °F 55% 29.95 in 10.0 mi NW 4.6 mph - N/A   Clear
9:14 PM 71.6 °F - 55.8 °F 57% 29.95 in 10.0 mi Calm Calm - N/A   Clear
9:34 PM 70.9 °F - 56.1 °F 59% 29.95 in 10.0 mi Calm Calm - N/A   Clear
9:55 PM 67.6 °F - 56.3 °F 67% 29.96 in 10.0 mi SW 3.5 mph - N/A   Clear
10:15 PM 68.0 °F - 55.9 °F 65% 29.97 in 10.0 mi Calm Calm - N/A   Clear
10:34 PM 67.1 °F - 55.8 °F 67% 29.97 in 10.0 mi SW 3.5 mph - N/A   Clear
10:55 PM 66.6 °F - 55.6 °F 68% 29.98 in 10.0 mi SW 3.5 mph - N/A   Clear
11:14 PM 65.7 °F - 55.4 °F 69% 29.98 in 10.0 mi SW 3.5 mph - N/A   Clear
11:55 PM 63.5 °F - 55.6 °F 75% 29.98 in 10.0 mi SSW 4.6 mph - N/A   Clear